[[{"header":{"parameterUnit":"m.s-1","parameterCategory":1,"la1":30.2991,"la2":30.254,"lo1":-89.0895,"lo2":-89.0444,"dy":0.0017,"dx":0.0017,"nx":28,"ny":28,"refTime":"2024-02-04T03:00:00:Z","depth":0,"parameterNumber":2,"parameterNumberName":"U-component_of_WINDS"},"data":[0,0,0,0,0,0,0,0,0,0,0,0,0,0,0,0,0,0,0,0,0,0,0,0,0,0,0,0,0,0,0,0,0,0,0,0,0,0,0,0,0,0,0,0,0,0,0,0,0,0,0,0,0,0,0,0,0,0,-0.8997,-0.8999,0,-0.9123,-0.9124,-0.9126,-0.9171,-0.9171,-0.917,-0.917,-0.9298,-0.9302,-0.9306,0,0,0,0,0,0,0,0,0,0,0,0,0,-0.8797,-0.88,-0.8997,-0.8999,-0.9,-0.9123,-0.9124,-0.9126,-0.9171,-0.9171,-0.917,-0.917,-0.9297,-0.9302,-0.9306,0,0,0,0,0,0,0,0,0,0,0,0,0,-0.8899,-0.8801,-0.8997,-0.9038,-0.9043,-0.9122,-0.9124,-0.9126,-0.9171,-0.9171,-0.917,-0.917,-0.9296,-0.9301,-0.9307,-0.9355,0,0,-0.9324,-0.9327,0,0,0,0,0,0,0,0,-0.8893,-0.8906,-0.903,-0.9035,-0.9041,-0.9131,-0.9101,-0.9203,-0.9172,-0.9123,-0.917,-0.9169,-0.9243,-0.9253,-0.9278,-0.9361,-0.9367,-0.9325,-0.9328,-0.9331,-0.9332,0,0,0,0,0,0,0,-0.8886,-0.8901,-0.9047,-0.9032,-0.9038,-0.905,-0.9064,-0.912,-0.9185,-0.9127,-0.913,-0.9145,-0.9246,-0.9272,-0.9281,-0.9369,-0.9325,-0.933,-0.9333,-0.9336,-0.9498,-0.9498,0,0,0,0,0,0,-0.8872,-0.8895,-0.9043,-0.9051,-0.8964,-0.9054,-0.9069,-0.9102,-0.9184,-0.9196,-0.9145,-0.9146,-0.9263,-0.9275,-0.9286,-0.9348,-0.9331,-0.9336,-0.9339,-0.9497,-0.9498,-0.9499,0,0,0,0,0,0,-0.8868,-0.8885,-0.9038,-0.8974,-0.8994,-0.9058,-0.9095,-0.9105,-0.9132,-0.9198,-0.921,-0.916,-0.9263,-0.9278,-0.9338,-0.9353,-0.9339,-0.9344,-0.9496,-0.9497,-0.9498,-0.9473,0,0,0,0,0,0,-0.8862,-0.8883,-0.8902,-0.8974,-0.8998,-0.9087,-0.9096,-0.9108,-0.9142,-0.9144,-0.9216,-0.9227,-0.9264,-0.9329,-0.9343,-0.9361,-0.9348,-0.9495,-0.9496,-0.9498,-0.9472,-0.9473,-0.9473,0,0,0,0,0,-0.8855,-0.889,-0.8903,-0.8921,-0.9023,-0.9088,-0.9102,-0.9143,-0.9143,-0.9163,-0.9205,-0.9225,-0.9349,-0.9335,-0.9351,-0.9371,-0.9494,-0.9496,-0.9498,-0.9472,-0.9473,-0.9473,0,0,0,0,0,0,-0.8819,-0.89,-0.8915,-0.8975,-0.9024,-0.9096,-0.9122,-0.9142,-0.9193,-0.9193,-0.9243,-0.9258,-0.9314,-0.9348,-0.9331,-0.9422,-0.9423,-0.9428,-0.9398,-0.9399,-0.9399,-0.939,-0.9353,0,0,0,0,0,-0.8817,-0.8864,-0.8933,-0.8979,-0.9003,-0.9058,-0.9088,-0.9116,-0.9169,-0.919,-0.9237,-0.9287,-0.9338,-0.937,-0.942,-0.9477,-0.9494,-0.9499,-0.9499,-0.9499,-0.9504,-0.9537,-0.954,-0.9505,-0.9505,-0.9505,0,0,-0.8816,-0.8866,-0.8893,-0.8973,-0.9014,-0.9061,-0.9075,-0.9124,-0.916,-0.9197,-0.9256,-0.9292,-0.9352,-0.9411,-0.9439,-0.9441,-0.9517,-0.9502,-0.9502,-0.9506,-0.9539,-0.9542,-0.9545,-0.9506,-0.9506,-0.9506,0,0,-0.8837,-0.888,-0.8923,-0.8964,-0.9027,-0.9063,-0.9073,-0.9141,-0.9167,-0.9227,-0.9256,-0.9299,-0.9385,-0.9426,-0.9458,-0.9495,-0.9515,-0.951,-0.9512,-0.9544,-0.9546,-0.9549,-0.9562,-0.9566,-0.9513,-0.9513,-0.9513,0,-0.8828,-0.89,-0.8943,-0.899,-0.9025,-0.9061,-0.9105,-0.9142,-0.9218,-0.9241,-0.9242,-0.9351,-0.9393,-0.9462,-0.9471,-0.9496,-0.9509,-0.9502,-0.9542,-0.9546,-0.9549,-0.9562,-0.9567,-0.9512,-0.9512,-0.9513,-0.9513,0,-0.8885,-0.8934,-0.8961,-0.9033,-0.9071,-0.9116,-0.9166,-0.9199,-0.9223,-0.9259,-0.932,-0.9372,-0.9434,-0.9452,-0.9476,-0.9524,-0.9523,-0.9533,-0.9535,-0.955,-0.9563,-0.9569,-0.9511,-0.9511,-0.9512,-0.9512,0,0,-0.8888,-0.8982,-0.8992,-0.9025,-0.9096,-0.9135,-0.9182,-0.9242,-0.9269,-0.932,-0.936,-0.9432,-0.9441,-0.9478,-0.9507,-0.9534,-0.956,-0.954,-0.9543,-0.9542,-0.9616,-0.9609,-0.9614,-0.9573,-0.9574,-0.9575,-0.9611,0,-0.8919,-0.9004,-0.9044,-0.9112,-0.9158,-0.9193,-0.9234,-0.9282,-0.9317,-0.9361,-0.9399,-0.9449,-0.9458,-0.948,-0.9508,-0.955,-0.9575,-0.9548,-0.9611,-0.9613,-0.9596,-0.9621,-0.9613,-0.9645,-0.9616,-0.9617,-0.9618,0,-0.8967,-0.9017,-0.9089,-0.9155,-0.9176,-0.9212,-0.927,-0.9312,-0.9367,-0.939,-0.943,-0.9458,-0.9509,-0.9507,-0.9577,-0.9558,-0.9586,-0.961,-0.9612,-0.962,-0.9617,-0.9629,-0.9656,-0.966,-0.9626,-0.9626,-0.9625,0,-0.8962,-0.9048,-0.9102,-0.9129,-0.9207,-0.9232,-0.9265,-0.9319,-0.9353,-0.9403,-0.9426,-0.9481,-0.9512,-0.9554,-0.9596,-0.9591,-0.9663,-0.9664,-0.9684,-0.9683,-0.9698,-0.9696,-0.9729,-0.9715,-0.9715,-0.9715,-0.9715,0,-0.8992,-0.9035,-0.9101,-0.9135,-0.9184,-0.9229,-0.9277,-0.9313,-0.9361,-0.9402,-0.9435,-0.9472,-0.9526,-0.957,-0.9603,-0.9656,-0.967,-0.969,-0.9699,-0.9688,-0.9685,-0.9707,-0.9706,-0.9716,-0.9716,-0.9715,-0.9715,0,-0.8996,-0.9041,-0.9103,-0.9171,-0.919,-0.9223,-0.9281,-0.9315,-0.9351,-0.9403,-0.9418,-0.9474,-0.9528,-0.9574,-0.9645,-0.9668,-0.9723,-0.9733,-0.9704,-0.9709,-0.9726,-0.9724,-0.9775,-0.9784,-0.9762,-0.9763,-0.9763,0,-0.9012,-0.9046,-0.9118,-0.9148,-0.9181,-0.9229,-0.9263,-0.9309,-0.9343,-0.9408,-0.9434,-0.949,-0.9538,-0.9622,-0.967,-0.9724,-0.9736,-0.975,-0.9744,-0.9732,-0.9737,-0.9734,-0.9738,-0.975,-0.975,-0.975,-0.975,0,-0.9038,-0.9058,-0.9106,-0.9162,-0.9202,-0.9248,-0.9296,-0.9318,-0.9372,-0.9409,-0.9465,-0.9502,-0.9574,-0.963,-0.9689,-0.9724,-0.9746,-0.9751,-0.9759,-0.9748,-0.9731,-0.9741,-0.9705,-0.975,-0.975,-0.975,-0.975,-0.975,-0.9049,-0.908,-0.9136,-0.9188,-0.9228,-0.9271,-0.9307,-0.9347,-0.9394,-0.9457,-0.9481,-0.9537,-0.9591,-0.9674,-0.9708,-0.9753,-0.9756,-0.9767,-0.977,-0.9772,-0.977,-0.9723,-0.9764,-0.9764,-0.9764,-0.9764,-0.9764,0,-0.9076,-0.9113,-0.9161,-0.9225,-0.9266,-0.9284,-0.9337,-0.937,-0.9419,-0.9468,-0.9514,-0.9577,-0.9631,-0.9683,-0.9739,-0.9765,-0.9777,-0.9779,-0.9777,-0.9785,-0.9764,-0.9752,-0.9768,-0.9768,-0.9768,-0.9768,-0.9768,-0.9768,-0.9095,-0.9149,-0.9176,-0.9251,-0.9288,-0.9344,-0.9373,-0.9413,-0.9452,-0.9521,-0.9566,-0.9599,-0.9649,-0.9709,-0.9759,-0.9773,-0.9792,-0.9791,-0.9808,-0.9787,-0.9786,-0.9785,-0.9775,-0.9795,-0.9795,-0.9825,-0.9825,-0.9825]},{"header":{"parameterUnit":"m.s-1","parameterCategory":1,"la1":30.2991,"la2":30.254,"lo1":-89.0895,"lo2":-89.0444,"dy":0.0017,"dx":0.0017,"nx":28,"ny":28,"refTime":"2024-02-04T03:00:00:Z","depth":0,"parameterNumber":3,"parameterNumberName":"V-component_of_WINDS"},"data":[0,0,0,0,0,0,0,0,0,0,0,0,0,0,0,0,0,0,0,0,0,0,0,0,0,0,0,0,0,0,0,0,0,0,0,0,0,0,0,0,0,0,0,0,0,0,0,0,0,0,0,0,0,0,0,0,0,0,-7.4655,-7.4656,0,-7.4731,-7.4732,-7.4733,-7.4635,-7.4632,-7.4628,-7.4625,-7.4698,-7.4704,-7.4709,0,0,0,0,0,0,0,0,0,0,0,0,0,-7.4423,-7.4428,-7.4655,-7.4656,-7.4657,-7.4731,-7.4732,-7.4733,-7.4636,-7.4632,-7.4627,-7.4623,-7.4697,-7.4703,-7.4709,0,0,0,0,0,0,0,0,0,0,0,0,0,-7.4514,-7.443,-7.4655,-7.4618,-7.4615,-7.4731,-7.4732,-7.4733,-7.4637,-7.4631,-7.4626,-7.4621,-7.4695,-7.4702,-7.471,-7.4865,0,0,-7.4734,-7.4738,0,0,0,0,0,0,0,0,-7.4509,-7.4523,-7.4622,-7.4621,-7.4618,-7.4668,-7.4677,-7.4777,-7.4638,-7.4629,-7.4625,-7.4619,-7.4692,-7.47,-7.4726,-7.4868,-7.4871,-7.4735,-7.474,-7.4743,-7.4745,0,0,0,0,0,0,0,-7.4503,-7.4519,-7.4685,-7.4624,-7.4621,-7.4596,-7.4603,-7.4696,-7.4689,-7.4629,-7.4622,-7.4633,-7.469,-7.4719,-7.4727,-7.4872,-7.4735,-7.4742,-7.4746,-7.475,-7.5146,-7.5152,0,0,0,0,0,0,-7.4502,-7.4514,-7.4683,-7.4687,-7.4549,-7.4605,-7.4612,-7.4657,-7.4688,-7.4687,-7.4637,-7.4628,-7.4708,-7.4718,-7.4729,-7.4913,-7.4743,-7.475,-7.4755,-7.514,-7.5147,-7.5154,0,0,0,0,0,0,-7.4497,-7.4518,-7.4679,-7.4599,-7.4618,-7.4614,-7.4666,-7.4662,-7.469,-7.4694,-7.4692,-7.4667,-7.4704,-7.4718,-7.4832,-7.4914,-7.4754,-7.4761,-7.5134,-7.5143,-7.5151,-7.5282,0,0,0,0,0,0,-7.4491,-7.4516,-7.4576,-7.4601,-7.4623,-7.4783,-7.4671,-7.4667,-7.4704,-7.4693,-7.4722,-7.4722,-7.4701,-7.4821,-7.484,-7.4922,-7.4767,-7.5126,-7.5138,-7.5148,-7.5271,-7.5294,-7.5315,0,0,0,0,0,-7.4483,-7.4609,-7.4579,-7.46,-7.4697,-7.4788,-7.48,-7.4774,-7.4711,-7.4771,-7.4773,-7.4721,-7.4902,-7.4834,-7.4854,-7.494,-7.5121,-7.5134,-7.5147,-7.5261,-7.529,-7.5314,0,0,0,0,0,0,-7.4591,-7.4611,-7.4579,-7.4717,-7.4752,-7.4771,-7.4845,-7.4806,-7.4858,-7.4845,-7.481,-7.4817,-7.494,-7.4951,-7.4874,-7.5092,-7.5001,-7.5019,-7.508,-7.5108,-7.513,-7.5125,-7.4774,0,0,0,0,0,-7.4632,-7.4705,-7.4718,-7.4838,-7.4857,-7.4849,-7.4887,-7.4865,-7.4899,-7.4913,-7.4923,-7.4957,-7.5022,-7.5065,-7.5125,-7.5271,-7.5277,-7.534,-7.5363,-7.5381,-7.5397,-7.5476,-7.5505,-7.5197,-7.5197,-7.5196,0,0,-7.4715,-7.4735,-7.4783,-7.4861,-7.4885,-7.4961,-7.4862,-7.4946,-7.5002,-7.4925,-7.5034,-7.5044,-7.5079,-7.5211,-7.5269,-7.5224,-7.5483,-7.5397,-7.5412,-7.5418,-7.5493,-7.5522,-7.5548,-7.5206,-7.5204,-7.5203,0,0,-7.4906,-7.4928,-7.5032,-7.5059,-7.5098,-7.5091,-7.5116,-7.5142,-7.5146,-7.5256,-7.52,-7.5265,-7.5377,-7.5405,-7.5434,-7.5638,-7.5592,-7.5658,-7.5774,-7.5852,-7.5876,-7.5897,-7.5971,-7.5998,-7.5674,-7.5674,-7.5674,0,-7.5004,-7.5118,-7.509,-7.5179,-7.5215,-7.5151,-7.5255,-7.5282,-7.5338,-7.5364,-7.5312,-7.5453,-7.5472,-7.561,-7.566,-7.5685,-7.5712,-7.5655,-7.5875,-7.5896,-7.5916,-7.5985,-7.6013,-7.5682,-7.5681,-7.568,-7.5679,0,-7.5238,-7.5318,-7.5396,-7.5454,-7.5499,-7.5595,-7.5581,-7.5629,-7.5603,-7.5602,-7.5715,-7.5736,-7.5799,-7.583,-7.5804,-7.5965,-7.5936,-7.5881,-7.5789,-7.5953,-7.6019,-7.6045,-7.5693,-7.569,-7.5688,-7.5686,0,0,-7.5499,-7.5541,-7.5571,-7.5597,-7.5636,-7.5696,-7.579,-7.5853,-7.5896,-7.5936,-7.6014,-7.6111,-7.6061,-7.6094,-7.6071,-7.6139,-7.6301,-7.6075,-7.6075,-7.6117,-7.648,-7.6522,-7.6554,-7.627,-7.6275,-7.6279,-7.6477,0,-7.5691,-7.5855,-7.5833,-7.599,-7.6064,-7.6004,-7.6085,-7.6118,-7.6119,-7.6181,-7.6182,-7.6252,-7.6179,-7.6199,-7.6264,-7.6267,-7.6373,-7.6252,-7.6342,-7.6345,-7.6336,-7.6588,-7.6632,-7.6819,-7.6502,-7.6507,-7.651,0,-7.5938,-7.599,-7.6155,-7.6184,-7.6214,-7.6288,-7.6345,-7.6405,-7.644,-7.6437,-7.6475,-7.644,-7.6533,-7.6439,-7.6567,-7.6486,-7.652,-7.6528,-7.6534,-7.6542,-7.6438,-7.6603,-7.6877,-7.6906,-7.6549,-7.6546,-7.6543,0,-7.6114,-7.6225,-7.6338,-7.6362,-7.6398,-7.6452,-7.6469,-7.6499,-7.6539,-7.6589,-7.6615,-7.6674,-7.6706,-7.6753,-7.6734,-7.6668,-7.6866,-7.6771,-7.6866,-7.6867,-7.6911,-7.6908,-7.7195,-7.6932,-7.6931,-7.6931,-7.693,0,-7.6332,-7.6435,-7.6418,-7.6488,-7.6603,-7.6576,-7.6689,-7.6699,-7.6726,-7.6797,-7.6747,-7.6814,-7.6786,-7.685,-7.6836,-7.6945,-7.6959,-7.6959,-7.6954,-7.6964,-7.6965,-7.6987,-7.6974,-7.6938,-7.6937,-7.6935,-7.6934,0,-7.6548,-7.654,-7.6661,-7.6686,-7.6694,-7.6778,-7.6798,-7.6864,-7.6862,-7.6951,-7.6971,-7.6968,-7.7041,-7.7028,-7.7108,-7.7099,-7.7235,-7.7214,-7.7224,-7.722,-7.7316,-7.7308,-7.7629,-7.767,-7.7379,-7.7381,-7.7384,0,-7.6688,-7.6767,-7.6801,-7.6845,-7.6867,-7.6939,-7.6981,-7.6957,-7.7002,-7.7049,-7.7109,-7.7178,-7.7233,-7.7353,-7.7358,-7.7419,-7.74,-7.7508,-7.7408,-7.7417,-7.7403,-7.7399,-7.7407,-7.7528,-7.7531,-7.7534,-7.7536,0,-7.6938,-7.6931,-7.6993,-7.7056,-7.7107,-7.7155,-7.7197,-7.7235,-7.7215,-7.7268,-7.7344,-7.7387,-7.7471,-7.7541,-7.7598,-7.7614,-7.7573,-7.7567,-7.7593,-7.7604,-7.7608,-7.7608,-7.7279,-7.756,-7.7558,-7.7556,-7.7555,-7.7554,-7.7121,-7.7189,-7.7224,-7.7296,-7.7326,-7.7367,-7.743,-7.7437,-7.7501,-7.7568,-7.755,-7.7636,-7.767,-7.7743,-7.7766,-7.7833,-7.7792,-7.7829,-7.7838,-7.7848,-7.7861,-7.7597,-7.7843,-7.7842,-7.7841,-7.7841,-7.784,0,-7.737,-7.739,-7.7456,-7.7518,-7.7575,-7.7532,-7.7577,-7.7626,-7.7704,-7.7739,-7.7795,-7.7882,-7.795,-7.7961,-7.8025,-7.8076,-7.8059,-7.8094,-7.809,-7.8095,-7.7892,-7.7865,-7.8107,-7.8107,-7.8107,-7.8107,-7.8107,-7.8107,-7.7506,-7.7619,-7.7617,-7.7744,-7.7762,-7.7849,-7.7878,-7.7916,-7.7944,-7.8045,-7.8102,-7.8109,-7.8134,-7.82,-7.826,-7.8261,-7.8288,-7.8331,-7.8325,-7.8136,-7.8109,-7.8084,-7.8057,-7.8337,-7.8337,-7.8522,-7.8524,-7.8525]}]]